TimeEDT,TemperatureF,Dew PointF,Humidity,Sea Level PressureIn,VisibilityMPH,Wind Direction,Wind SpeedMPH,Gust SpeedMPH,PrecipitationIn,Events,Conditions,WindDirDegrees,DateUTC
12:15 AM,54.3,53.6,97,29.76,7.0,NNE,4.6,-,N/A,Rain,Rain,20,2012-10-02 04:15:00
12:35 AM,54.5,53.6,97,29.75,7.0,NE,5.8,-,N/A,,Overcast,50,2012-10-02 04:35:00
12:55 AM,54.5,53.6,97,29.75,7.0,NNE,5.8,-,N/A,,Overcast,30,2012-10-02 04:55:00
1:15 AM,54.5,53.6,97,29.75,7.0,NNE,4.6,-,N/A,,Overcast,20,2012-10-02 05:15:00
1:35 AM,54.5,53.6,97,29.74,7.0,NNE,4.6,-,N/A,,Overcast,30,2012-10-02 05:35:00
1:55 AM,54.5,53.6,97,29.74,7.0,NE,4.6,-,N/A,,Overcast,40,2012-10-02 05:55:00
2:15 AM,54.7,53.6,96,29.74,7.0,NNE,3.5,-,N/A,,Overcast,30,2012-10-02 06:15:00
2:35 AM,54.9,53.8,96,29.74,7.0,NE,4.6,-,N/A,,Overcast,40,2012-10-02 06:35:00
2:55 AM,54.7,53.6,96,29.73,7.0,NE,4.6,-,N/A,,Mostly Cloudy,50,2012-10-02 06:55:00
3:15 AM,55.0,53.6,95,29.73,7.0,ENE,5.8,-,N/A,,Overcast,60,2012-10-02 07:15:00
3:35 AM,55.2,54.0,96,29.73,7.0,NNE,4.6,-,N/A,,Overcast,30,2012-10-02 07:35:00
3:55 AM,55.4,54.1,96,29.73,7.0,NE,4.6,-,N/A,,Overcast,40,2012-10-02 07:55:00
4:15 AM,55.4,54.5,97,29.73,7.0,NE,3.5,-,N/A,,Overcast,40,2012-10-02 08:15:00
4:35 AM,55.6,54.5,96,29.73,7.0,ENE,3.5,-,N/A,,Overcast,70,2012-10-02 08:35:00
4:55 AM,55.8,54.7,96,29.72,7.0,ENE,5.8,-,N/A,,Overcast,60,2012-10-02 08:55:00
5:15 AM,56.1,55.0,96,29.73,7.0,East,3.5,-,N/A,,Overcast,80,2012-10-02 09:15:00
5:35 AM,56.3,55.4,97,29.73,7.0,NE,3.5,-,N/A,,Overcast,50,2012-10-02 09:35:00
5:55 AM,56.5,55.6,97,29.74,7.0,NE,3.5,-,N/A,,Overcast,50,2012-10-02 09:55:00
6:15 AM,56.7,55.9,97,29.74,7.0,NE,3.5,-,N/A,,Overcast,50,2012-10-02 10:15:00
6:35 AM,56.8,56.3,98,29.75,7.0,NE,3.5,-,N/A,,Overcast,50,2012-10-02 10:35:00
6:55 AM,57.2,56.3,97,29.76,7.0,Calm,Calm,-,N/A,,Overcast,0,2012-10-02 10:55:00
7:15 AM,57.2,56.7,98,29.76,5.0,Calm,Calm,-,N/A,,Overcast,0,2012-10-02 11:15:00
7:35 AM,57.4,56.8,98,29.77,7.0,Calm,Calm,-,N/A,,Overcast,0,2012-10-02 11:35:00
7:50 AM,57.2,57.2,100,29.77,5.0,Calm,Calm,-,N/A,,Overcast,0,2012-10-02 11:50:00
7:55 AM,57.9,57.2,97,29.78,5.0,ENE,3.5,-,N/A,,Overcast,60,2012-10-02 11:55:00
8:15 AM,58.1,57.4,97,29.78,5.0,NE,3.5,-,N/A,,Overcast,50,2012-10-02 12:15:00
9:50 AM,60.8,60.8,100,29.79,5.0,East,5.8,-,N/A,,Overcast,80,2012-10-02 13:50:00
10:50 AM,62.6,60.8,94,29.79,7.0,East,4.6,-,N/A,,Overcast,80,2012-10-02 14:50:00
11:50 AM,69.8,62.6,78,29.79,10.0,Calm,Calm,-,N/A,,Overcast,0,2012-10-02 15:50:00
12:50 PM,71.6,64.4,78,29.78,10.0,Calm,Calm,-,N/A,,Overcast,0,2012-10-02 16:50:00
1:50 PM,73.4,64.4,73,29.77,10.0,Calm,Calm,-,N/A,,Overcast,0,2012-10-02 17:50:00
2:55 PM,75.2,66.2,73,29.76,10.0,East,6.9,-,N/A,,Mostly Cloudy,80,2012-10-02 18:55:00
3:47 PM,78.8,66.2,65,29.75,10.0,East,6.9,-,N/A,,Mostly Cloudy,80,2012-10-02 19:47:00
4:47 PM,78.8,66.2,65,29.75,10.0,East,8.1,-,N/A,,Mostly Cloudy,100,2012-10-02 20:47:00
5:47 PM,77.0,66.2,69,29.76,10.0,East,4.6,-,N/A,,Overcast,90,2012-10-02 21:47:00
6:25 PM,71.6,66.2,83,29.79,4.0,WNW,9.2,-,N/A,Rain,Rain,300,2012-10-02 22:25:00
6:47 PM,69.8,66.2,88,29.81,7.0,WNW,10.4,-,N/A,,Overcast,290,2012-10-02 22:47:00
9:15 PM,62.6,61.7,97,29.87,5.0,Calm,Calm,-,N/A,,Scattered Clouds,0,2012-10-03 01:15:00
9:35 PM,61.9,61.5,99,29.87,5.0,NNW,5.8,-,N/A,,Scattered Clouds,330,2012-10-03 01:35:00
9:55 PM,61.7,61.0,97,29.88,4.0,Calm,Calm,-,N/A,,Scattered Clouds,0,2012-10-03 01:55:00
10:15 PM,61.0,60.6,99,29.88,4.0,West,3.5,-,N/A,,Scattered Clouds,280,2012-10-03 02:15:00
10:35 PM,60.4,60.3,99,29.88,3.0,Calm,Calm,-,N/A,,Scattered Clouds,0,2012-10-03 02:35:00
10:55 PM,60.3,60.3,100,29.89,2.5,Calm,Calm,-,N/A,,Scattered Clouds,0,2012-10-03 02:55:00
11:15 PM,59.0,59.0,100,29.89,1.0,Calm,Calm,-,N/A,,Mostly Cloudy,0,2012-10-03 03:15:00
11:35 PM,57.0,57.0,100,29.90,0.2,Calm,Calm,-,N/A,Fog,Fog,0,2012-10-03 03:35:00
11:55 PM,57.2,57.2,100,29.91,0.2,Calm,Calm,-,N/A,Fog,Fog,0,2012-10-03 03:55:00